Flag for Mexico Weather past 2 weeks in Mexicali, Baja California, Mexico

Now
94 °F

Sunny.


Feels Like: 102 °F
Forecast: 90 / 108 °F
Wind: 15 mph from Southeast

Location: Imperial County Airport

Current Time: Jul 25, 2014 at 9:24:36 AM

Latest Report: Jul 25, 2014 at 8:53 AM


Visibility: 10 mi

Pressure: 29.79 "Hg

Humidity: 49%

Dew point: 72 °F

Location of MexicaliLocation

Historic Weather in Mexicali — Graph

°F

Mexicali temperature yesterday

Maximum temperature yesterday: 115 °F (at 3:53 PM)
Minimum temperature yesterday: 87 °F (at 5:53 AM)
Average temperature yesterday: 102 °F

Past Weeks' High & Low Weather Summary

 TemperatureHumidityPressure
High116 °F (Jul 23, 5:53 PM)77% (Jul 15, 5:53 AM)29.93 "Hg (Jul 15, 5:53 AM)
Low73 °F (Jul 22, 5:53 AM)6% (Jul 17, 2:53 PM)29.58 "Hg (Jul 24, 5:53 PM)
Average93 °F29%29.79 "Hg
* Reported Jul 10 7:53 AM — Jul 25 7:53 AM, Mexicali, Weather by CustomWeather, © 2014

Note: Actual official high and low records may vary slightly from our data, if they occured in-between our weather recording intervals... More about our weather records

Advertising

Mexicali weather history for previous 24 hours

 ConditionsComfort  
Time TempWeatherWind HumidityBarometerVisibility
7:53 AM
Jul 25
90 °FSunny.14 mph57%29.77 "Hg10 mi
6:53 AM88 °FSunny.13 mph63%29.75 "Hg10 mi
5:53 AM88 °FClear.13 mph63%29.73 "Hg10 mi
4:53 AM89 °FClear.13 mph63%29.70 "Hg10 mi
3:53 AM90 °FClear.10 mph56%29.69 "Hg10 mi
2:53 AM91 °FClear.13 mph50%29.68 "Hg10 mi
1:53 AM93 °FClear.12 mph52%29.68 "Hg10 mi
12:53 AM95 °FClear.14 mph40%29.68 "Hg10 mi
11:53 PM
Jul 24
97 °FClear.12 mph32%29.67 "Hg10 mi
10:53 PM103 °FClear.10 mph20%29.66 "Hg10 mi
9:53 PM102 °FClear.8 mph20%29.65 "Hg10 mi
8:53 PM106 °FClear.12 mph16%29.63 "Hg10 mi
7:53 PM108 °FPassing clouds.18 mph14%29.61 "Hg10 mi
6:53 PM111 °FSunny.17 mph13%29.59 "Hg10 mi
5:53 PM114 °FPartly sunny.13 mph12%29.58 "Hg10 mi
4:53 PM115 °FScattered clouds.12 mph10%29.59 "Hg10 mi
3:53 PM115 °FPassing clouds.12 mph10%29.61 "Hg10 mi
2:53 PM114 °FSunny.10 mph12%29.65 "Hg10 mi
1:53 PM114 °FSunny.9 mph9%29.67 "Hg10 mi
12:53 PM111 °FSunny.8 mph11%29.69 "Hg10 mi
11:53 AM108 °FSunny.6 mph14%29.71 "Hg10 mi
10:53 AM104 °FSunny.10 mph18%29.73 "Hg10 mi
9:53 AM103 °FSunny.12 mph23%29.74 "Hg10 mi
Weather by CustomWeather, © 2014

See weather overviewHow to use our weather pages